Regional Weather Roundup
Issued by NWS

Home | Current Version | Previous Version | Graphics & Text | Print | Product List | Glossary On
Versions: 1 2 3 4 5 6 7 8 9 10 11 12 13 14 15 16 17 18 19 20 21 22 23 24 25 26 27 28 29 30 31 32 33 34 35 36 37 38 39 40 41 42 43 44 45 46 47 48 49 50
000
ASUS43 KMPX 240010
RWRMN
WEATHER ROUNDUP FOR MINNESOTA
NATIONAL WEATHER SERVICE TWIN CITIES/CHANHASSEN MN
700 PM CDT THU MAR 23 2017


NOTE: "FAIR" INDICATES FEW OR NO CLOUDS BELOW 12,000 FEET WITH NO
SIGNIFICANT WEATHER AND/OR OBSTRUCTIONS TO VISIBILITY. N/A MEANS
CURRENT SKY AND/OR WEATHER CONDITIONS ARE NOT AVAILABLE.

MNZ060>063-068>070-240100-
   Twin Cities Metro

CITY           SKY/WX    TMP DP  RH WIND       PRES   REMARKS
TWIN CITIES    CLOUDY    39  33  79 SE12      29.83F
6HR MIN TEMP:  38; 6HR MAX TEMP:  40; 6HR PCP:  0.02;

ST PAUL        CLOUDY    39  34  82 SE8       29.85R
CRYSTAL        LGT RAIN  38  33  82 SE12      29.81F
BLAINE         LGT RAIN  39  36  87 SE8       29.82F FOG
LAKEVILLE      CLOUDY    37  36  93 SE8       29.83F
EDEN PRAIRIE   CLOUDY    38  34  85 SE7       29.81F
6HR MIN TEMP:  38; 6HR MAX TEMP:  40; 6HR PCP: TRACE;

SOUTH ST PAUL  CLOUDY    39  33  77 SE6       29.84F
LAKE ELMO      CLOUDY    39  34  81 S8        29.86R
$$
MNZ001>005-007-008-013>017-022>024-027-028-240100-
   Northwest Minnesota

CITY           SKY/WX    TMP DP  RH WIND       PRES   REMARKS
BEMIDJI        LGT RAIN  33  32  96 S3        29.81F
HALLOCK        CLOUDY    36  34  93 S7        29.80R
ROSEAU         CLOUDY    37  32  81 S7        29.81R
WARROAD        CLOUDY    36  32  87 S5        29.81R
THIEF RVR FALL LGT RAIN N/A N/A N/A SW5       29.82R
CROOKSTON      CLOUDY    34  34 100 SW5       29.83R WCI  30
FOSSTON        DRIZZLE   34  30  86 S10       29.80F WCI  26
DETROIT LAKES  RAIN      34  34 100 SE8       29.80F WCI  27
MOORHEAD       DRIZZLE   36  34  93 SE3       29.80F
PARK RAPIDS    CLOUDY    34  31  88 S14       29.79F WCI  25
MAHNOMEN       DRIZZLE   34  33  95 SE3       29.80F
$$
MNZ006-009>011-018-025>026-240100-
   North Central Minnesota

CITY           SKY/WX    TMP DP  RH WIND       PRES   REMARKS
BAUDETTE       CLOUDY    34  32  92 S7        29.81R WCI  28
FLAG ISLAND    CLOUDY    34  32  93 S6        29.79R FOG     WCI  29
INTL FALLS     CLOUDY    33  31  92 SE13      29.78F WCI  24
6HR MIN TEMP:  33; 6HR MAX TEMP:  40; 6HR PCP:  0.23;

WASKISH        CLOUDY    36  34  93 S6        29.82R
BIG FORK       MIX PCPN  34  30  86 S8        29.85R WCI  27
LONGVILLE      RAIN      34  30  86 CALM      29.86R
GRAND RAPIDS   LGT SNOW  33  31  92 W7        29.91R FOG     WCI  27
CRANE LAKE     CLOUDY    32  30  93 SE3       29.85F
ORR            LGT RAIN  32  28  86 CALM      29.81F
COOK           MIX PCPN  32  30  93 SE5         N/A  WCI  27
WALKER         RAIN      32  31  97 SE3       29.81F
$$
MNZ012-019>021-037-240100-
   Northeast Minnesota

CITY           SKY/WX    TMP DP  RH WIND       PRES   REMARKS
DULUTH         LGT RAIN  33  29  85 SE6       29.85F WCI  28
6HR MIN TEMP:  33; 6HR MAX TEMP:  36; 6HR PCP:  0.08;

ELY            MIX PCPN  30  30 100 S7        29.86S WCI  23
HIBBING        MIX PCPN  31  31 100 E6        29.82F FOG     WCI  25
EVELETH        MIX PCPN  32  29  90 E3        29.85F
DULUTH HARBOR  MIX PCPN  36  30  80 CALM      29.90F
TWO HARBORS    DRIZZLE   36  30  80 NE3       29.85F
SILVER BAY     CLOUDY    34  30  86 CALM      29.88F
GRAND MARAIS     N/A     33  31  92 CALM      29.93F
G MARAIS ARPRT LGT SNOW  27  25  93 S5        29.87F WCI  21
$$
MNZ029>031-032-039>041-046>048-054>057-064-240100-
   West Central Minnesota

CITY           SKY/WX    TMP DP  RH WIND       PRES   REMARKS
FERGUS FALLS   DRIZZLE   36  36 100 SE7       29.83R
WHEATON        CLOUDY    36  36 100 E9        29.79R FOG
MORRIS         CLOUDY    36  36 100 SE13      29.77R FOG
ALEXANDRIA     CLOUDY    34  33  96 SE10      29.80R FOG     WCI  26
ELBOW LAKE     CLOUDY    34  34  99 SE6       29.80R FOG     WCI  29
WADENA         CLOUDY    34  32  93 E5        29.80F FOG     WCI  30
GLENWOOD       DRIZZLE   34  34 100 SE10      29.80R WCI  26
APPLETON       CLOUDY    37  36  93 SE10      29.76F FOG
BENSON         DRIZZLE   37  34  87 SE12G17   29.79S
ORTONVILLE     RAIN      36  34  93 SE8       29.76S
MADISON        MIX PCPN  39  39 100 SE10      29.75F
WILLMAR        CLOUDY    36  36 100 SE10      29.80F FOG
$$
MNZ033>034-036-042>043-049>051-058-059-240100-
   Central Minnesota

CITY           SKY/WX    TMP DP  RH WIND       PRES   REMARKS
ST CLOUD       LGT RAIN  35  35 100 E5        29.83R FOG     WCI  31
6HR MIN TEMP:  35; 6HR MAX TEMP:  40; 6HR PCP:  0.06;

SAUK CENTRE    CLOUDY    33  33  97 SE9       29.81R FOG     WCI  26
PAYNESVILLE    DRIZZLE   34  35 100 SE7       29.81S WCI  28
AITKIN         MIX PCPN  36  30  80 SE7       29.80F
PINE RIVER     RAIN      34  32  93 N5        29.89R WCI  30
BRAINERD       CLOUDY    34  31  88 SE5       29.83F FOG     WCI  30
STAPLES        CLOUDY    34  32  93 E3        29.81F FOG
LONG PRAIRIE   CLOUDY    32  32 100 E6        29.82R FOG     WCI  26
LITTLE FALLS   CLOUDY    34  32  93 SE6       29.84R FOG     WCI  29
LITCHFIELD     DRIZZLE   36  36 100 SE8       29.81S
BUFFALO        DRIZZLE   36  33  90 E3        29.83F
MAPLE LAKE     RAIN      37  36  96 SE5       29.83F
HUTCHINSON     DRIZZLE   36  35  97 SE9       29.81F
$$
MNZ037-044-045-052-053-240100-
   East Central Minnesota

CITY           SKY/WX    TMP DP  RH WIND       PRES   REMARKS
PRINCETON      DRIZZLE   37  36  93 CALM      29.85R
MORA           CLOUDY    34  30  86 CALM      29.87F FOG
CAMBRIDGE      DRIZZLE   37  30  75 CALM      29.83R
RUSH CITY      CLOUDY    37  31  80 S3        29.87S
MOOSE LAKE     LGT RAIN  34  30  86 CALM      29.84R
HINCKLEY       CLOUDY    36  32  87 CALM      29.85F
CLOQUET        MIX PCPN  34  28  80 E3        29.85S
MCGREGOR       CLOUDY    34  32  93 S6        29.84S THUNDER WCI  29
$$
MNZ071>073-080-081-089-090-097-098-240100-
   Southwest Minnesota

CITY           SKY/WX    TMP DP  RH WIND       PRES   REMARKS
MONTEVIDEO     CLOUDY    37  37 100 S10G16    29.78S FOG
GRANITE FALLS  DRIZZLE   38  37  94 E8        29.78R
CANBY          CLOUDY    39  38  97 CALM      29.75S FOG
MARSHALL       LGT RAIN  38  36  92 SE10      29.74F
REDWOOD FALLS  CLOUDY    38  33  82 SE13      29.77S
OLIVIA         CLOUDY    36  34  93 E8        29.78R FOG
PIPESTONE      DRIZZLE   43  36  75 SE7       29.69S
WINDOM         MOCLDY    43  36  75 E7        29.74F
WORTHINGTON    CLOUDY    42  36  79 SE7       29.73R
JACKSON        CLOUDY    41  34  75 SE13      29.74F
TRACY          CLOUDY    40  37  88 E6        29.74S
SLAYTON        CLOUDY    40  35  84 SE7       29.73S
$$
MNZ065>067-074>077-082>085-091>093-240100-
   South Central Minnesota

CITY           SKY/WX    TMP DP  RH WIND       PRES   REMARKS
MANKATO        CLOUDY    38  35  89 SE14      29.82S
NEW ULM        CLOUDY    37  34  87 SE10      29.79S
ST JAMES       CLOUDY    39  36  87 E10       29.78S
FAIRMONT       CLOUDY    41  35  79 SE16      29.78R
GLENCOE        DRIZZLE   37  37 100 SE9       29.81S
FARIBAULT      CLOUDY    37  36  93 SE9       29.84R
OWATONNA       CLOUDY    39  36  87 SE12      29.84R
WASECA         CLOUDY    37  34  87 SE9       29.84S
ALBERT LEA     CLOUDY    37  37 100 SE10      29.82S
$$
MNZ078>079-086>088-094>096-240100-
   Southeast Minnesota

CITY           SKY/WX    TMP DP  RH WIND       PRES   REMARKS
ROCHESTER      CLOUDY    37  36  96 S14       29.85R
6HR MIN TEMP:  35; 6HR MAX TEMP:  38; 6HR PCP:  0.07;

RED WING       CLOUDY    41  30  65 SE9       29.86R
STANTON        CLOUDY    39  35  83 SE9       29.83F
DODGE CENTER   CLOUDY    37  36  93 SE16      29.81R
WINONA         CLOUDY    37  36  93 SE13      29.86F
AUSTIN         CLOUDY    37  36  93 SE12G20   29.82R
PRESTON        CLOUDY    37  34  90 SE10      29.87R
$$
ABBREVIATIONS USED IN REMARKS
   TC - TEMPERATURES IN CELSIUS
  WCI - WIND CHILL INDEX
   HX - HEAT INDEX
  VSB - VISIBILITY
$$




USA.gov is the U.S. government's official web portal to all federal, state and local government web resources and services.